Theta_e
321 320 318 316 315 314 314 313 316 318 318 317 315 314 314 315 315 316 318 320 329 329 328 328 336 344 344 344 343 343 350 351 348 349 350 347 347 345 345 343 345 345 344 343 343
320 321 321 319 317 315 314 315 318 319 319 319 318 316 315 315 315 317 319 320 325 326 328 331 338 342 340 345 347 346 351 349 344 344 347 347 347 348 345 343 345 345 341 342 342
320 320 320 320 319 317 316 315 318 319 319 319 319 317 316 315 315 317 319 320 325 323 324 333 336 338 336 344 346 348 350 348 348 343 347 347 346 347 345 344 344 343 343 342 343
320 320 320 319 320 319 317 316 317 319 319 319 319 319 316 314 319 322 318 319 322 322 323 325 332 329 329 336 345 349 348 350 346 345 346 346 346 346 344 344 344 342 342 341 343
322 321 320 320 319 320 319 317 316 319 319 318 319 320 318 316 327 328 322 318 320 321 321 323 326 328 331 342 346 344 346 348 346 346 345 345 346 347 344 343 344 339 341 342 342
323 323 322 320 319 319 319 318 317 317 318 318 319 320 320 322 328 330 321 317 318 321 321 327 330 326 343 346 347 347 349 346 346 347 347 345 345 346 346 344 345 343 343 342 341
322 322 323 322 320 319 319 319 319 318 318 320 321 321 320 321 330 329 324 318 320 320 321 326 329 325 341 346 346 347 349 348 345 345 346 346 348 347 344 345 344 343 344 343 341
318 320 321 321 321 319 319 319 319 320 321 322 322 322 321 320 329 329 325 319 320 321 319 319 328 323 344 342 343 347 345 350 348 347 347 346 351 346 344 345 345 345 344 343 342
315 316 319 320 321 320 320 319 319 319 320 321 322 322 324 321 326 328 325 319 318 321 319 321 322 338 342 345 343 344 342 347 345 347 348 347 350 345 344 345 345 344 344 344 343
316 316 316 317 320 321 321 320 319 318 317 319 321 323 323 326 323 327 326 320 317 320 321 321 322 331 338 340 335 336 336 338 341 347 348 349 349 344 345 344 344 344 344 344 344
315 315 315 316 318 320 322 321 318 323 323 324 325 323 324 325 330 328 326 321 320 320 323 320 324 327 329 338 330 332 331 332 335 345 348 349 348 346 345 345 344 345 344 343 342
315 314 315 315 317 320 323 319 321 323 324 323 326 324 323 325 327 328 326 324 322 323 320 322 325 325 323 327 329 326 327 330 339 345 346 348 349 347 344 346 346 346 345 344 343
315 315 315 315 317 321 320 317 323 324 323 321 322 323 323 322 325 327 326 324 323 322 322 324 324 321 322 323 325 326 328 330 332 346 345 349 350 350 346 344 344 344 345 344 344
315 315 315 315 317 322 322 324 323 323 322 321 321 323 322 322 325 326 327 324 320 324 321 323 323 321 321 324 324 328 326 328 334 341 343 348 351 346 348 348 344 343 342 343 344
315 315 315 315 317 320 323 322 324 320 325 320 323 324 323 326 325 325 327 324 322 322 322 323 321 322 324 323 324 326 327 329 336 342 347 347 350 346 344 346 347 344 342 342 343
316 316 316 316 318 319 323 323 321 322 323 326 324 325 325 325 322 320 322 321 319 320 320 322 319 321 323 322 322 329 340 340 343 345 346 341 345 336 343 345 344 343 343 342 342
316 317 319 319 319 319 322 322 324 323 320 325 325 326 326 327 324 324 323 323 323 322 323 322 322 322 321 323 322 324 334 331 334 342 333 339 342 335 337 340 341 342 343 342 342
317 325 324 320 320 322 324 321 324 319 323 323 325 324 326 326 328 322 324 326 321 321 323 325 326 323 322 324 325 324 326 325 326 326 326 344 343 336 337 338 339 339 339 342 342
324 323 323 319 320 322 323 325 325 319 323 325 325 325 327 326 327 325 324 326 325 322 325 325 325 322 321 322 324 321 323 323 326 330 333 331 338 332 333 337 338 338 339 340 341
325 324 321 320 323 324 325 322 322 319 324 325 327 326 328 326 327 326 326 326 325 322 324 326 327 324 322 321 319 322 322 323 324 327 327 327 330 327 329 332 338 342 341 340 341
325 325 321 323 324 324 325 323 323 322 323 326 327 328 328 328 326 326 327 326 323 322 322 324 324 327 325 324 326 321 322 321 323 324 326 325 326 331 334 336 339 342 341 341 341
323 327 322 323 324 318 325 322 321 324 323 325 325 326 327 326 328 326 327 326 323 321 322 323 325 327 328 324 322 322 325 325 326 328 325 325 326 329 333 337 337 342 342 342 341
325 324 324 323 327 326 323 324 323 323 323 324 325 324 324 325 327 325 325 324 326 324 325 322 325 328 330 324 321 324 324 325 324 325 331 328 327 331 336 339 339 342 343 342 341
323 326 322 321 318 321 322 323 324 322 322 322 323 324 325 326 324 325 327 326 325 327 327 321 324 329 331 332 327 327 323 323 326 328 329 328 329 330 334 340 341 342 343 341 341
319 318 317 324 322 319 318 320 323 324 322 322 324 324 324 327 326 327 325 326 326 325 325 324 330 327 327 325 325 330 331 324 325 328 328 330 330 330 333 338 340 342 343 341 341
317 317 315 317 316 319 317 321 322 322 322 323 324 323 323 325 324 326 324 325 326 326 327 326 332 329 330 330 326 326 327 328 326 327 327 332 334 333 336 336 338 341 343 343 345
313 315 316 314 318 318 318 319 321 318 320 321 320 321 323 322 320 320 321 321 323 323 325 327 330 332 331 330 331 330 331 331 330 330 329 333 336 337 337 339 339 340 342 344 346
Wind_Speed
12 11 11 9 8 6 5 4 2 2 2 1 1 3 5 7 7 8 8 9 12 12 13 9 10 9 3 2 2 2 1 2 5 4 3 2 5 2 3 12 4 2 3 11 20
11 11 10 9 8 7 6 4 2 2 2 3 1 2 4 6 7 10 8 11 13 12 12 11 11 10 1 0 1 1 1 4 1 6 6 6 7 7 5 9 4 5 11 18 20
11 10 9 9 8 7 6 3 1 1 2 3 2 1 2 4 4 3 12 14 17 9 9 9 7 6 2 1 1 1 2 3 1 5 13 6 4 4 8 6 3 12 18 19 18
12 11 10 9 8 7 6 3 1 0 1 2 2 2 1 4 5 6 10 16 18 13 14 11 9 3 3 1 3 1 4 2 5 6 6 5 5 6 4 3 3 17 18 19 17
11 11 10 9 8 7 5 3 1 1 1 1 2 3 1 3 2 4 10 18 20 17 15 13 10 4 3 3 6 1 3 6 7 8 7 5 4 1 6 3 5 18 18 16 16
11 11 10 10 8 7 5 3 2 2 2 2 2 3 1 3 5 4 9 21 19 19 15 13 5 3 2 4 2 3 4 5 4 5 5 6 6 2 5 9 12 17 19 17 17
12 11 11 10 9 8 6 4 2 2 3 2 3 4 5 5 6 7 7 16 15 16 14 14 5 3 3 5 7 6 4 2 3 6 4 9 5 8 7 13 16 18 17 17 17
13 12 12 11 10 8 7 5 3 3 4 4 4 4 4 8 10 9 9 13 14 13 9 9 7 2 1 10 4 2 1 2 4 5 4 7 5 10 9 15 16 17 17 19 19
14 13 12 12 11 9 7 6 5 6 7 6 5 3 3 10 12 12 10 5 13 14 10 7 5 3 5 4 3 3 3 3 3 7 3 10 5 10 13 15 14 16 17 20 18
16 14 13 12 10 8 6 5 5 7 8 7 8 3 5 5 12 14 13 4 8 14 7 3 2 3 2 5 6 2 3 4 6 5 8 9 14 3 15 18 17 17 18 19 20
17 15 14 13 11 8 6 4 3 3 12 7 4 4 9 3 7 14 17 12 10 8 6 2 6 11 11 7 4 2 4 9 5 5 7 11 13 10 16 19 21 20 19 20 22
18 16 14 13 11 7 4 5 4 1 6 13 18 16 9 7 4 11 20 11 5 8 6 4 14 10 2 5 5 5 8 10 3 4 7 4 12 12 14 23 25 25 24 25 24
20 18 15 12 10 3 6 8 5 4 3 4 10 17 17 17 4 11 20 11 6 6 8 10 1 7 8 7 7 9 11 8 8 4 4 5 8 10 13 21 21 27 27 25 26
21 19 15 9 4 4 7 8 4 4 2 3 3 3 12 9 6 11 21 13 3 12 5 7 7 5 4 13 9 15 8 13 6 4 4 4 5 5 8 14 19 26 28 28 26
23 20 14 7 4 4 8 5 3 3 2 3 3 6 12 12 8 11 22 14 6 6 7 7 7 11 14 13 12 10 3 3 5 5 3 5 4 4 3 9 18 26 31 32 31
22 19 11 5 5 8 10 3 5 2 2 2 5 5 10 6 3 7 11 7 4 5 4 12 2 4 9 7 12 9 9 8 5 1 4 2 6 11 5 6 4 15 30 32 31
21 12 5 2 5 11 10 8 2 3 2 2 2 4 13 8 4 7 13 14 8 5 9 7 14 8 5 6 6 7 6 2 3 4 6 1 5 11 15 11 12 9 19 29 31
15 7 4 6 9 10 11 2 3 0 2 2 2 1 10 8 8 6 11 12 10 5 0 3 4 11 11 16 7 10 11 6 7 6 8 2 5 6 5 5 8 10 11 18 28
6 8 9 6 10 8 5 3 1 2 3 6 3 3 6 7 3 6 8 13 11 18 9 4 4 3 4 4 10 6 7 5 3 2 3 3 7 14 8 5 10 11 9 15 24
7 10 11 9 7 5 2 1 1 2 4 2 2 1 3 4 8 9 10 5 9 18 23 5 8 2 5 6 5 6 10 4 2 5 9 5 6 10 16 12 7 7 11 12 18
5 5 5 7 5 4 2 1 3 3 4 2 1 2 2 2 2 5 5 3 5 6 18 10 6 5 2 6 9 4 4 1 2 2 8 9 5 5 11 7 6 9 11 12 14
4 2 3 4 3 2 2 1 4 4 4 2 2 3 3 2 4 3 5 5 3 11 10 11 5 8 15 2 3 3 5 9 7 6 2 4 9 3 6 6 6 10 10 10 11
4 3 5 3 2 2 2 2 2 6 5 5 3 4 1 2 4 5 3 1 6 6 7 9 6 5 6 4 2 7 9 8 4 1 9 9 9 3 4 6 9 12 13 9 10
3 1 6 8 6 2 3 2 2 5 1 4 3 2 4 2 1 3 3 2 10 3 2 12 6 8 11 4 3 4 6 12 14 7 9 11 16 13 9 9 9 12 13 13 11
6 3 3 3 4 3 1 1 2 3 4 5 3 7 4 3 3 2 3 7 2 6 2 4 8 8 14 13 6 11 18 13 14 18 11 14 11 17 14 5 12 14 15 16 15
5 3 3 2 3 2 2 1 1 3 3 1 2 10 4 4 2 3 7 3 3 6 4 1 5 3 9 12 12 14 18 12 16 10 14 7 11 12 7 5 11 17 20 19 19
9 6 2 3 2 2 1 2 1 7 4 6 5 9 9 1 13 18 16 19 17 8 5 4 3 3 14 8 9 13 20 12 12 12 15 12 11 8 7 9 13 15 19 24 24
Wind_Direction
30 30 31 29 28 25 20 9 16 22 26 28 225 222 224 226 221 222 208 190 174 177 174 177 162 173 186 342 1 14 56 125 173 191 151 212 148 121 105 141 115 80 137 154 161
22 22 23 23 22 21 23 29 29 34 33 33 28 231 230 231 230 230 191 181 169 173 167 178 173 178 197 352 3 14 15 20 119 171 171 155 147 145 128 151 83 93 124 156 160
15 14 15 14 14 14 21 32 39 26 28 32 32 344 239 226 228 198 197 182 176 161 158 164 184 168 229 202 211 91 24 2 44 156 150 138 123 132 150 184 160 162 152 161 165
2 4 3 4 5 5 11 21 21 339 12 26 21 8 245 170 166 166 184 182 184 179 172 168 176 196 247 241 181 333 357 12 130 146 141 140 127 142 150 87 157 159 163 167 173
354 354 353 351 350 350 356 4 348 241 279 331 356 6 100 201 136 159 189 182 178 180 182 186 181 197 251 155 137 241 6 53 118 159 173 162 141 223 203 190 113 163 170 176 179
348 346 343 341 337 336 338 349 330 230 245 282 317 338 331 213 153 137 176 186 188 185 188 193 205 212 179 122 101 106 95 95 111 166 160 183 211 203 221 222 173 173 181 186 189
344 341 338 335 329 326 323 323 314 235 235 262 291 303 280 193 159 148 144 184 184 188 202 196 188 206 174 122 122 133 103 122 146 165 158 152 181 220 201 176 177 182 190 195 199
344 338 334 330 327 318 311 302 283 235 233 256 272 289 246 196 177 173 171 190 192 194 198 210 205 247 147 126 89 109 99 268 182 198 163 195 244 217 193 181 186 191 198 201 205
343 337 329 325 323 319 306 300 270 234 230 240 251 250 243 200 197 187 188 208 199 196 197 174 190 136 131 160 126 22 291 252 281 203 198 210 268 208 190 198 193 201 207 210 212
341 337 328 319 314 316 299 286 265 237 227 239 244 274 215 189 204 198 190 171 164 175 176 203 115 174 145 204 261 172 289 266 272 186 210 216 246 204 202 207 214 216 219 224 220
339 336 329 321 313 310 283 249 237 236 219 211 219 183 141 154 176 196 192 157 143 158 183 158 214 211 215 213 146 167 280 293 302 176 203 239 262 244 211 214 224 221 217 221 226
339 335 331 320 313 304 231 198 181 154 288 244 235 234 214 154 154 185 185 176 175 183 145 167 229 218 177 176 205 237 281 282 289 161 209 293 279 262 212 219 220 224 219 222 229
338 333 331 321 311 243 179 184 197 325 258 268 231 236 240 213 216 189 181 172 180 179 197 217 197 178 201 185 212 248 256 265 285 141 217 304 284 257 234 226 222 232 235 228 227
336 331 328 320 293 189 181 180 249 281 285 190 218 220 180 178 213 200 190 177 178 214 169 250 234 213 190 231 214 264 246 255 243 222 282 208 293 270 253 243 223 223 231 230 221
333 327 322 301 244 203 175 195 299 155 262 119 122 161 168 176 139 177 184 188 201 181 189 222 210 206 228 239 198 260 316 279 208 216 291 197 259 265 266 262 239 225 223 224 225
334 326 318 287 219 185 175 190 141 238 232 93 124 163 161 188 134 128 173 179 185 169 241 252 210 219 212 204 194 142 103 91 99 168 250 272 241 286 240 236 266 224 222 217 214
338 338 343 158 153 172 175 157 193 223 346 46 81 166 184 185 154 172 178 193 198 191 224 235 234 222 195 225 154 193 182 212 210 208 274 355 230 256 280 260 258 260 226 216 212
349 13 52 137 159 158 160 165 208 60 306 346 335 178 194 169 210 163 172 201 218 216 315 273 237 192 189 215 213 193 220 236 261 255 283 162 242 259 264 308 282 263 247 213 210
28 82 58 119 150 159 165 195 278 209 333 335 314 168 194 208 224 184 202 217 212 199 216 218 249 199 207 159 200 162 205 267 200 112 264 258 266 278 263 256 264 248 225 205 204
115 83 56 113 122 127 129 185 291 246 314 305 319 1 173 159 195 196 189 209 221 202 210 211 268 295 127 147 77 222 146 193 222 242 267 230 272 258 279 285 266 226 224 214 205
123 92 86 99 108 62 154 243 290 285 277 281 301 292 271 282 233 209 210 214 215 190 200 202 228 227 214 202 203 148 203 194 184 239 264 267 259 228 258 289 257 235 214 210 202
75 84 110 69 63 34 114 305 333 332 359 327 278 264 260 307 278 247 224 249 208 150 170 207 218 247 242 197 182 206 237 201 245 216 244 278 263 223 262 274 225 218 215 213 198
51 68 48 49 114 81 355 327 315 358 358 356 331 4 304 256 254 255 282 91 17 188 170 168 219 238 264 152 132 217 198 210 227 244 213 241 264 172 241 238 229 211 198 202 186
29 74 33 62 64 50 12 26 327 349 236 353 302 47 348 302 19 296 300 315 335 353 285 179 192 222 244 265 132 212 223 202 212 233 233 233 261 263 254 217 199 201 197 186 189
40 58 32 24 53 39 327 351 305 327 357 355 155 38 344 290 306 295 324 317 291 4 40 222 239 224 250 257 262 264 264 212 208 227 220 249 225 253 256 242 204 190 187 178 186
58 24 5 48 324 307 349 84 343 338 293 297 16 339 337 262 57 316 345 298 315 333 340 14 259 245 254 260 232 231 239 243 240 237 244 241 231 250 235 164 181 190 186 190 189
42 18 23 9 4 289 53 32 62 350 254 253 10 339 302 146 315 287 270 266 269 293 298 300 278 231 254 263 256 242 232 214 233 228 217 208 216 193 209 217 197 198 202 198 192